Sheboygan, WI

9:35 AM CDT on August 23, 2017 (GMT -0500)
Sheboygan County Memorial

Weather History for KSBM - November, 2012

Change the Weather History Date:

Friday, November 9, 2012

  Actual Average Record
Temperature  
Mean Temperature 42 °F -  
Max Temperature 50 °F 47 °F 73 °F (1999)
Min Temperature 34 °F 34 °F 15 °F (2003)
Degree Days  
Heating Degree Days 23    
Moisture  
Dew Point 41 °F    
Average Humidity 84    
Maximum Humidity 89    
Minimum Humidity 73    
Precipitation  
Precipitation 0.00 in - - ()
Sea Level Pressure  
Sea Level Pressure 30.07 in    
Wind  
Wind Speed 6 mph (East)    
Max Wind Speed 12 mph    
Max Gust Speed -    
Visibility 4 miles    
Events      
Averages and records for this station are not official NWS values.
T = Trace of Precipitation, MM = Missing Value Source: NWS Daily Summary

Daily Weather History Graph

Daily Weather History Graph

Search for Another Location

Airport or City:

Trip Planner

Search our weather history database for the weather conditions in past years. The results will help you decide how hot, cold, wet, or windy it might be!

Date:

Astronomy

Nov. 09, 2012 Rise Set
Actual Time 6:38 AM CST 4:31 PM CST
Civil Twilight 6:07 AM CST 5:02 PM CST
Nautical Twilight 5:33 AM CST 5:36 PM CST
Astronomical Twilight 4:59 AM CST 6:10 PM CST
Moon 1:28 AM CST (11/9) 1:52 PM CST (11/9)
Length of Visible Light 10h 54m
Length of Day
9h 52m
Waning Crescent, 23% of the Moon is Illuminated
Nov 9
Waning Crescent
Nov 13
New
Nov 20
First Quarter
Nov 28
Full
Dec 6
Last Quarter

Hourly Weather History & Observations

Time (CST) Temp. Windchill Dew Point Humidity Pressure Visibility Wind Dir Wind Speed Gust Speed Precip Events Conditions
12:53 AM 37.0 °F 32.4 °F 32.0 °F 82% 30.10 in 6.0 mi South 5.8 mph - N/A   Haze
1:53 AM 36.0 °F 31.1 °F 32.0 °F 86% 30.10 in 5.0 mi SSW 5.8 mph - N/A   Clear
2:53 AM 34.0 °F 28.8 °F 30.9 °F 89% 30.09 in 4.0 mi South 5.8 mph - N/A   Clear
3:53 AM 35.1 °F 32.2 °F 32.0 °F 89% 30.09 in 4.0 mi SW 3.5 mph - N/A   Overcast
4:53 AM 37.9 °F 35.5 °F 35.1 °F 89% 30.09 in 4.0 mi South 3.5 mph - N/A   Overcast
5:53 AM 39.0 °F 36.8 °F 35.1 °F 86% 30.10 in 4.0 mi West 3.5 mph - N/A   Overcast
6:53 AM 41.0 °F - 37.0 °F 86% 30.10 in 4.0 mi Calm Calm - N/A   Overcast
7:53 AM 42.1 °F - 37.0 °F 82% 30.11 in 3.0 mi Calm Calm - N/A   Haze
8:53 AM 43.0 °F - 37.0 °F 80% 30.12 in 4.0 mi Calm Calm - N/A   Haze
9:53 AM 46.0 °F - 37.9 °F 73% 30.12 in 4.0 mi Calm Calm - N/A   Haze
10:53 AM 48.0 °F - 39.9 °F 74% 30.11 in 4.0 mi NE 4.6 mph - N/A   Haze
11:53 AM 48.9 °F - 41.0 °F 74% 30.07 in 4.0 mi East 8.1 mph - N/A   Haze
12:00 PM 48.2 °F - 41.0 °F 76% 30.06 in 4.0 mi ENE 8.1 mph - N/A   Haze
12:53 PM 48.9 °F - 43.0 °F 80% 30.07 in 3.0 mi ENE 8.1 mph - N/A   Haze
1:06 PM 48.2 °F - 42.8 °F 82% 30.05 in 3.0 mi ENE 9.2 mph - N/A   Haze
1:53 PM 50.0 °F - 44.1 °F 80% 30.05 in 3.0 mi ENE 6.9 mph - N/A   Haze
2:53 PM 50.0 °F - 45.0 °F 83% 30.05 in 3.0 mi East 6.9 mph - N/A   Haze
3:41 PM 48.2 °F - 44.6 °F 87% 30.04 in 3.0 mi East 6.9 mph - N/A   Haze
3:53 PM 48.9 °F - 44.1 °F 83% 30.06 in 3.0 mi East 6.9 mph - N/A   Haze
4:01 PM 48.2 °F - 44.6 °F 87% 30.04 in 3.0 mi East 5.8 mph - N/A   Haze
4:13 PM 48.2 °F - 44.6 °F 87% 30.04 in 2.5 mi East 6.9 mph - N/A   Haze
4:26 PM 48.2 °F - 44.6 °F 87% 30.04 in 3.0 mi East 5.8 mph - N/A   Haze
4:41 PM 48.2 °F - 44.6 °F 87% 30.04 in 4.0 mi East 4.6 mph - N/A   Overcast
4:53 PM 48.0 °F - 44.1 °F 86% 30.06 in 4.0 mi ENE 6.9 mph - N/A   Overcast
5:50 PM 48.2 °F - 44.6 °F 87% 30.05 in 4.0 mi ENE 10.4 mph - N/A   Overcast
5:53 PM 48.0 °F - 44.1 °F 86% 30.06 in 4.0 mi ENE 9.2 mph - N/A   Overcast
6:00 PM 48.2 °F - 42.8 °F 82% 30.05 in 4.0 mi ENE 9.2 mph - N/A   Haze
6:41 PM 48.2 °F - 42.8 °F 82% 30.06 in 5.0 mi ENE 9.2 mph - N/A   Haze
6:53 PM 48.0 °F - 43.0 °F 83% 30.07 in 5.0 mi ENE 10.4 mph - N/A   Haze
7:12 PM 48.2 °F - 44.6 °F 87% 30.06 in 4.0 mi ENE 11.5 mph - N/A   Haze
7:21 PM 48.2 °F - 44.6 °F 87% 30.06 in 4.0 mi East 9.2 mph - N/A   Haze
7:31 PM 48.2 °F - 44.6 °F 87% 30.07 in 4.0 mi East 9.2 mph - N/A   Haze
7:42 PM 48.2 °F - 44.6 °F 87% 30.07 in 4.0 mi ENE 6.9 mph - N/A   Haze
7:53 PM 48.9 °F - 45.0 °F 86% 30.08 in 4.0 mi ENE 8.1 mph - N/A   Overcast
8:12 PM 48.2 °F - 44.6 °F 87% 30.07 in 5.0 mi East 8.1 mph - N/A   Haze
8:53 PM 48.9 °F - 44.1 °F 83% 30.09 in 5.0 mi ENE 10.4 mph - N/A   Haze
9:53 PM 48.9 °F - 44.1 °F 83% 30.08 in 6.0 mi ENE 9.2 mph - N/A   Haze
10:53 PM 48.9 °F - 44.1 °F 83% 30.07 in 6.0 mi NE 8.1 mph - N/A   Haze
11:53 PM 48.9 °F - 44.1 °F 83% 30.07 in 5.0 mi NE 5.8 mph - N/A   Haze